STARLINK-1014 (44720 NORAD) Tracking and Keplerian Element Data

This shows tracking and keplerian element data for the satellite.

Feedback or suggestion? Click here.




ElementValue
Catalog44720
NameSTARLINK-1014
Epoch Orbit2240
Epoch Day94.25001157
Epoch Year2020
RAAN192.4842
Inclination53.009
Eccentricity0.0005128
Argument of Perigee286.9955
Mean Anonmoly135.3766
Mean Motion15.14024998
Decay Rate0.04662168
L11 44720U 19074H 20094.25001157 .04662168 00000-0 22304+0 0 9997
L22 44720 53.0090 192.4842 0005128 286.9955 135.3766 15.14024998 22408

Live tracking and technical data element details for STARLINK-1014 (NORAD 44720). STARLINK-1014 can be tracked NOW for your location showing map with azimuth and elevation plus other details from your city location.

Track the satellite on the map from your city or location and see movement details for azimuth, elevation, latitude, longitude, range, height, and movement on the map or in text.







IsCatalogInMostPopularTable: catalog: 44720, numindb: 25
Update: records affected: 1



GetName: 44720 STARLINK-1014

Hit Count: updated at: Fri, 10 Apr 2020 18:05:34 GMT